{"data":{"norad_id":51716,"epoch":"2026-09-20T03:45:24.048576Z","epoch_age_seconds":78091,"freshness":"FRESH","line1":"1 51716U 22016C   26263.15652834  .00000601  00000+0  29596-4 0  9995","line2":"2 51716  53.1610 165.6404 0001392  85.4263 274.6899 15.33552506252927","mean_motion":15.33552506,"eccentricity":0.0001392,"inclination_deg":53.161,"raan_deg":165.6404,"arg_perigee_deg":85.4263,"mean_anomaly_deg":274.6899,"bstar":2.9596e-5,"rev_number":25292,"period_min":93.899621588829,"perigee_km":464.27073518709,"apogee_km":466.17592670322,"semimajor_km":6843.3603309452,"source":"CELESTRAK","updated_at":"2026-09-20T09:00:39.597189Z"}}